Location: Cheyres
(46.8153°N, 6.7877°E)
Time: 09:33:52
(UTC+00:00)

Cosmos 990 Rocket - Pass Details

Date: 22 September 2021
Orbit: 746 x 769 km, 74.0° (Epoch: 21 October)

Event Time Altitude Azimuth Distance (km) Brightness Sun altitude
Exits shadow 21:18:05 22° 3° (N) 1,621 6.0 -35.6°
Drops below altitude 10° 21:19:59 10° 13° (NNE) 2,293 6.8 -35.8°
Sets 21:22:28 0° 19° (NNE) 3,226 7.6 -36.1°
